2022/12/18 00:00:00, 0.9,-0.6
2022/12/18 00:10:00, 1.5,-0.7
2022/12/18 00:20:00, 2.1,-1.0
2022/12/18 00:30:00, 2.8,-0.7
2022/12/18 00:40:00, 3.1,-0.6
2022/12/18 00:50:00, 3.5,-0.8
2022/12/18 01:00:00, 5.2,-0.8
2022/12/18 01:10:00, 7.0,-0.8
2022/12/18 01:20:00, 8.7,-1.0
2022/12/18 01:30:00,11.0,-1.1
2022/12/18 01:40:00,12.7,-1.2
2022/12/18 01:50:00,14.0,-1.3
2022/12/18 02:00:00,15.3,-1.4
2022/12/18 02:10:00,16.3,-2.0
2022/12/18 02:20:00,18.6,-1.6
2022/12/18 02:30:00,18.9,-1.3
2022/12/18 02:40:00,20.0,-1.8
2022/12/18 02:50:00,21.2,-1.9
2022/12/18 03:00:00,22.5,-1.8
2022/12/18 03:10:00,23.3,-2.4
2022/12/18 03:20:00,24.0,-2.3
2022/12/18 03:30:00,24.9,-2.4
2022/12/18 03:40:00,25.6,-2.6
2022/12/18 03:50:00,26.0,-2.7
2022/12/18 04:00:00,26.8,-2.8
2022/12/18 04:10:00,27.0,-2.4
2022/12/18 04:20:00,27.1,-2.7
2022/12/18 04:30:00,26.4,-3.1
2022/12/18 04:40:00,26.3,-3.2
2022/12/18 04:50:00,26.7,-3.3
2022/12/18 05:00:00,27.3,-3.3
2022/12/18 05:10:00,27.5,-3.5
2022/12/18 05:20:00,27.9,-3.2
2022/12/18 05:30:00,28.2,-3.5
2022/12/18 05:40:00,28.1,-3.2
2022/12/18 05:50:00,28.5,-3.5
2022/12/18 06:00:00,28.7,-3.5
2022/12/18 06:10:00,28.8,-3.5
2022/12/18 06:20:00,28.9,-3.4
2022/12/18 06:30:00,29.0,-3.1
2022/12/18 06:40:00,28.6,-3.4
2022/12/18 06:50:00,28.5,-3.3
2022/12/18 07:00:00,28.5,-3.4
2022/12/18 07:10:00,28.3,-3.4
2022/12/18 07:20:00,28.2,-3.4
2022/12/18 07:30:00,28.3,-3.2
2022/12/18 07:40:00,28.0,-3.3
2022/12/18 07:50:00,27.8,-3.4
2022/12/18 08:00:00,27.9,-3.3
2022/12/18 08:10:00,27.7,-2.9
2022/12/18 08:20:00,27.5,-2.8
2022/12/18 08:30:00,27.4,-2.5
2022/12/18 08:40:00,27.3,-2.1
2022/12/18 08:50:00,27.0,-2.4
2022/12/18 09:00:00,26.7,-1.8
2022/12/18 09:10:00,26.6,-1.2
2022/12/18 09:20:00,26.5,-1.6
2022/12/18 09:30:00,26.7,-2.4
2022/12/18 09:40:00,26.8,-2.3
2022/12/18 09:50:00,27.0,-2.2
2022/12/18 10:00:00,27.1,-2.0
2022/12/18 10:10:00,27.3,-2.0
2022/12/18 10:20:00,27.4,-1.8
2022/12/18 10:30:00,27.4,-2.1
2022/12/18 10:40:00,27.4,-1.3
2022/12/18 10:50:00,27.2,-2.5
2022/12/18 11:00:00,27.7,-3.4
2022/12/18 11:10:00,28.3,-3.1
2022/12/18 11:20:00,28.5,-2.3
2022/12/18 11:30:00,28.5,-2.5
2022/12/18 11:40:00,28.3,-2.7
2022/12/18 11:50:00,28.8,-2.9
2022/12/18 12:00:00,29.6,-2.4
2022/12/18 12:10:00,30.1,-2.7
2022/12/18 12:20:00,31.2,-2.7
2022/12/18 12:30:00,32.4,-1.5
2022/12/18 12:40:00,32.9,-2.1
2022/12/18 12:50:00,32.8,-2.4
2022/12/18 13:00:00,33.0,-2.4
2022/12/18 13:10:00,34.0,-1.6
2022/12/18 13:20:00,34.3,-0.4
2022/12/18 13:30:00,34.1,-1.3
2022/12/18 13:40:00,33.9,-2.1
2022/12/18 13:50:00,34.3,-2.5
2022/12/18 14:00:00,34.5,-1.8
2022/12/18 14:10:00,34.8,-1.5
2022/12/18 14:20:00,34.3,-1.8
2022/12/18 14:30:00,34.3,-1.7
2022/12/18 14:40:00,35.1,-1.2
2022/12/18 14:50:00,34.9,-0.6
2022/12/18 15:00:00,34.8,-2.0
2022/12/18 15:10:00,35.3,-3.0
2022/12/18 15:20:00,36.3,-2.6
2022/12/18 15:30:00,37.0,-2.6
2022/12/18 15:40:00,37.1,-2.1
2022/12/18 15:50:00,37.1,-2.4
2022/12/18 16:00:00,37.0,-2.8
2022/12/18 16:10:00,36.8,-2.8
2022/12/18 16:20:00,36.9,-3.0
2022/12/18 16:30:00,36.9,-3.2
2022/12/18 16:40:00,36.8,-3.1
2022/12/18 16:50:00,37.2,-3.5
2022/12/18 17:00:00,37.2,-3.7
2022/12/18 17:10:00,37.2,-3.5
2022/12/18 17:20:00,37.1,-3.8
2022/12/18 17:30:00,37.0,-3.6
2022/12/18 17:40:00,37.0,-3.7
2022/12/18 17:50:00,37.2,-3.6
2022/12/18 18:00:00,37.9,-3.5
2022/12/18 18:10:00,37.7,-3.7
2022/12/18 18:20:00,38.2,-3.6
2022/12/18 18:30:00,38.2,-3.6
2022/12/18 18:40:00,38.2,-3.6
2022/12/18 18:50:00,38.4,-3.7
2022/12/18 19:00:00,38.2,-3.5
2022/12/18 19:10:00,38.0,-3.5
2022/12/18 19:20:00,38.0,-3.6
2022/12/18 19:30:00,38.2,-3.6
2022/12/18 19:40:00,39.2,-3.6
2022/12/18 19:50:00,40.1,-3.7
2022/12/18 20:00:00,40.2,-3.4
2022/12/18 20:10:00,40.1,-3.8
2022/12/18 20:20:00,40.4,-3.3
2022/12/18 20:30:00,41.0,-3.5
2022/12/18 20:40:00,40.7,-3.5
2022/12/18 20:50:00,40.6,-3.5
2022/12/18 21:00:00,40.9,-3.6
2022/12/18 21:10:00,40.9,-3.8
2022/12/18 21:20:00,40.6,-3.8
2022/12/18 21:30:00,40.1,-3.5
2022/12/18 21:40:00,40.0,-3.5
2022/12/18 21:50:00,40.3,-3.5
2022/12/18 22:00:00,40.1,-3.5
2022/12/18 22:10:00,40.3,-3.6
2022/12/18 22:20:00,40.1,-3.5
2022/12/18 22:30:00,40.0,-3.5
2022/12/18 22:40:00,39.9,-3.5
2022/12/18 22:50:00,39.7,-3.5
2022/12/18 23:00:00,39.4,-3.4
2022/12/18 23:10:00,39.3,-3.4
2022/12/18 23:20:00,39.2,-3.7
2022/12/18 23:30:00,38.9,-3.7
2022/12/18 23:40:00,38.7,-3.5
2022/12/18 23:50:00,39.0,-3.5
